Jefferson, NC

11:57 AM EDT on July 24, 2017 (GMT -0400)
Ashe County

Weather History for KGEV - December, 2014

Change the Weather History Date:

Thursday, December 18, 2014

  Actual Average Record
Temperature  
Mean Temperature 38 °F -  
Max Temperature 45 °F 45 °F 65 °F (1967)
Min Temperature 31 °F 21 °F 7 °F (1972)
Degree Days  
Heating Degree Days 27    
Moisture  
Dew Point 9 °F    
Average Humidity 37    
Maximum Humidity 72    
Minimum Humidity 13    
Precipitation  
Precipitation 0.00 in - - ()
Sea Level Pressure  
Sea Level Pressure 30.06 in    
Wind  
Wind Speed 10 mph (WNW)    
Max Wind Speed 20 mph    
Max Gust Speed 28 mph    
Visibility 10 miles    
Events      
Averages and records for this station are not official NWS values.
T = Trace of Precipitation, MM = Missing Value Source: NWS Daily Summary

Daily Weather History Graph

Daily Weather History Graph

Search for Another Location

Airport or City:

Trip Planner

Search our weather history database for the weather conditions in past years. The results will help you decide how hot, cold, wet, or windy it might be!

Date:

Astronomy

Dec. 18, 2014 Rise Set
Actual Time 7:31 AM EST 5:12 PM EST
Civil Twilight 7:03 AM EST 5:41 PM EST
Nautical Twilight 6:30 AM EST 6:13 PM EST
Astronomical Twilight 5:59 AM EST 6:45 PM EST
Moon 3:48 AM EST (12/18) 2:48 PM EST (12/18)
Length of Visible Light 10h 38m
Length of Day
9h 40m
Waning Crescent, 13% of the Moon is Illuminated
Dec 18
Waning Crescent
Dec 21
New
Dec 28
First Quarter
Jan 4
Full
Jan 13
Last Quarter

Hourly Weather History & Observations

Time (EST) Temp. Windchill Dew Point Humidity Pressure Visibility Wind Dir Wind Speed Gust Speed Precip Events Conditions
12:15 AM 32.9 °F 24.1 °F 24.6 °F 72% 30.04 in 10.0 mi West 11.5 mph 18.4 mph N/A   Clear
12:35 AM 33.1 °F 23.9 °F 24.1 °F 70% 30.04 in 10.0 mi West 12.7 mph 27.6 mph N/A   Clear
12:55 AM 32.9 °F 23.7 °F 23.0 °F 67% 30.04 in 10.0 mi WNW 12.7 mph 20.7 mph N/A   Clear
1:15 AM 32.9 °F 24.1 °F 22.5 °F 65% 30.03 in 10.0 mi WNW 11.5 mph 18.4 mph N/A   Clear
1:35 AM 32.9 °F 23.2 °F 22.1 °F 65% 30.04 in 10.0 mi West 13.8 mph 17.3 mph N/A   Clear
1:55 AM 32.7 °F 23.4 °F 21.7 °F 64% 30.04 in 10.0 mi West 12.7 mph 18.4 mph N/A   Clear
2:15 AM 32.9 °F 24.1 °F 19.4 °F 58% 30.05 in 10.0 mi West 11.5 mph 20.7 mph N/A   Clear
2:35 AM 32.2 °F 21.8 °F 21.0 °F 63% 30.05 in 10.0 mi West 15.0 mph 19.6 mph N/A   Clear
2:55 AM 32.2 °F 20.7 °F 20.3 °F 62% 30.05 in 10.0 mi West 18.4 mph 21.9 mph N/A   Clear
3:15 AM 32.0 °F 23.0 °F 19.6 °F 60% 30.05 in 10.0 mi WNW 11.5 mph 20.7 mph N/A   Clear
3:35 AM 32.0 °F 22.1 °F 20.1 °F 62% 30.05 in 10.0 mi WNW 13.8 mph - N/A   Clear
3:55 AM 32.0 °F 22.5 °F 19.8 °F 61% 30.05 in 10.0 mi WNW 12.7 mph 19.6 mph N/A   Clear
4:15 AM 31.6 °F 21.2 °F 20.3 °F 63% 30.06 in 10.0 mi WNW 15.0 mph 20.7 mph N/A   Clear
4:35 AM 32.0 °F 20.1 °F 18.5 °F 58% 30.05 in 10.0 mi WNW 19.6 mph 24.2 mph N/A   Clear
4:55 AM 32.0 °F 20.1 °F 18.5 °F 58% 30.06 in 10.0 mi West 19.6 mph 26.5 mph N/A   Clear
5:15 AM 32.0 °F 23.6 °F 18.1 °F 57% 30.05 in 10.0 mi NW 10.4 mph 25.3 mph N/A   Clear
5:35 AM 32.2 °F 25.8 °F 15.1 °F 49% 30.05 in 10.0 mi NW 6.9 mph 18.4 mph N/A   Clear
5:55 AM 32.7 °F 24.5 °F 11.7 °F 42% 30.05 in 10.0 mi NW 10.4 mph 18.4 mph N/A   Clear
6:15 AM 32.0 °F 26.4 °F 14.7 °F 49% 30.06 in 10.0 mi WNW 5.8 mph - N/A   Clear
6:35 AM 32.0 °F 27.5 °F 14.0 °F 48% 30.06 in 10.0 mi NW 4.6 mph - N/A   Scattered Clouds
6:55 AM 32.0 °F 24.2 °F 15.1 °F 50% 30.07 in 10.0 mi West 9.2 mph - N/A   Mostly Cloudy
7:15 AM 32.2 °F 20.7 °F 14.7 °F 49% 30.08 in 10.0 mi West 18.4 mph 23.0 mph N/A   Mostly Cloudy
7:35 AM 33.4 °F 25.4 °F 10.2 °F 38% 30.08 in 10.0 mi West 10.4 mph 13.8 mph N/A   Overcast
7:55 AM 33.3 °F 28.9 °F 10.6 °F 39% 30.08 in 10.0 mi West 4.6 mph - N/A   Overcast
8:15 AM 32.5 °F 24.8 °F 12.7 °F 44% 30.08 in 10.0 mi WNW 9.2 mph - N/A   Overcast
8:35 AM 33.6 °F 25.6 °F 10.0 °F 38% 30.09 in 10.0 mi WNW 10.4 mph - N/A   Overcast
8:55 AM 32.9 °F 29.8 °F 13.5 °F 45% 30.09 in 10.0 mi East 3.5 mph - N/A   Overcast
9:15 AM 34.2 °F 31.2 °F 9.0 °F 35% 30.10 in 10.0 mi North 3.5 mph - N/A   Overcast
9:35 AM 34.9 °F 24.6 °F 6.3 °F 30% 30.10 in 10.0 mi West 17.3 mph 23.0 mph N/A   Overcast
9:55 AM 36.1 °F 25.9 °F 2.7 °F 24% 30.11 in 10.0 mi WNW 18.4 mph 25.3 mph N/A   Overcast
10:15 AM 36.0 °F 29.6 °F 3.9 °F 26% 30.12 in 10.0 mi West 8.1 mph 19.6 mph N/A   Overcast
10:35 AM 36.0 °F - 4.5 °F 27% 30.12 in 10.0 mi Calm Calm - N/A   Overcast
11:00 AM 35.4 °F - 12.9 °F 40% 30.10 in 10.0 mi Calm Calm - N/A   Overcast
11:15 AM 35.6 °F - 11.3 °F 37% 30.10 in 10.0 mi Calm Calm - N/A   Overcast
11:35 AM 37.4 °F - 10.9 °F 34% 30.09 in 10.0 mi Calm Calm - N/A   Overcast
11:55 AM 39.0 °F 33.4 °F 3.2 °F 22% 30.07 in 10.0 mi West 8.1 mph - N/A   Overcast
12:15 PM 41.2 °F 37.3 °F -0.6 °F 17% 30.07 in 10.0 mi West 5.8 mph - N/A   Mostly Cloudy
12:35 PM 42.1 °F 36.6 °F -0.8 °F 17% 30.07 in 10.0 mi West 9.2 mph - N/A   Mostly Cloudy
12:55 PM 43.7 °F 38.6 °F -2.0 °F 15% 30.06 in 10.0 mi West 9.2 mph - N/A   Mostly Cloudy
1:15 PM 43.9 °F 42.3 °F -2.7 °F 14% 30.04 in 10.0 mi West 3.5 mph - N/A   Overcast
1:35 PM 44.6 °F 42.2 °F -4.4 °F 13% 30.03 in 10.0 mi WNW 4.6 mph - N/A   Overcast
1:55 PM 44.2 °F - -3.6 °F 13% 30.03 in 10.0 mi Calm Calm - N/A   Overcast
2:15 PM 45.0 °F 42.6 °F -2.4 °F 14% 30.02 in 10.0 mi NNW 4.6 mph - N/A   Overcast
2:35 PM 43.7 °F 42.1 °F 3.7 °F 19% 30.02 in 10.0 mi NW 3.5 mph - N/A   Overcast
2:55 PM 43.7 °F 41.1 °F 2.8 °F 18% 30.02 in 10.0 mi West 4.6 mph - N/A   Overcast
3:15 PM 44.1 °F 41.5 °F 3.6 °F 19% 30.02 in 10.0 mi NW 4.6 mph - N/A   Overcast
3:35 PM 43.7 °F 39.7 °F -2.0 °F 15% 30.02 in 10.0 mi West 6.9 mph - N/A   Overcast
3:55 PM 43.5 °F 39.4 °F -4.5 °F 13% 30.03 in 10.0 mi West 6.9 mph - N/A   Overcast
4:15 PM 43.0 °F 36.8 °F -4.2 °F 14% 30.02 in 10.0 mi WNW 11.5 mph 16.1 mph N/A   Overcast
4:35 PM 42.8 °F 37.0 °F -0.6 °F 16% 30.03 in 10.0 mi West 10.4 mph 16.1 mph N/A   Overcast
4:55 PM 42.3 °F 36.8 °F 1.9 °F 19% 30.04 in 10.0 mi WNW 9.2 mph - N/A   Overcast
5:15 PM 41.9 °F 35.4 °F -0.8 °F 17% 30.04 in 10.0 mi West 11.5 mph - N/A   Overcast
5:35 PM 41.4 °F 36.2 °F -0.6 °F 17% 30.05 in 10.0 mi West 8.1 mph - N/A   Overcast
5:55 PM 40.5 °F 33.6 °F 0.3 °F 19% 30.05 in 10.0 mi West 11.5 mph 19.6 mph N/A   Overcast
6:15 PM 39.9 °F 36.7 °F 2.5 °F 21% 30.07 in 10.0 mi WNW 4.6 mph - N/A   Overcast
6:35 PM 38.5 °F 34.1 °F 0.9 °F 21% 30.06 in 10.0 mi West 5.8 mph 19.6 mph N/A   Overcast
6:55 PM 37.8 °F - -1.7 °F 19% 30.06 in 10.0 mi Calm Calm - N/A   Mostly Cloudy
7:15 PM 37.4 °F 29.3 °F -2.9 °F 18% 30.06 in 10.0 mi WNW 12.7 mph 18.4 mph N/A   Mostly Cloudy
7:35 PM 37.2 °F 30.0 °F -0.4 °F 20% 30.06 in 10.0 mi WNW 10.4 mph 19.6 mph N/A   Overcast
7:55 PM 36.7 °F 31.2 °F 1.8 °F 23% 30.06 in 10.0 mi WNW 6.9 mph - N/A   Overcast
8:15 PM 36.5 °F 33.9 °F 1.4 °F 23% 30.05 in 10.0 mi NW 3.5 mph - N/A   Overcast
8:35 PM 36.1 °F 32.3 °F 5.4 °F 28% 30.06 in 10.0 mi West 4.6 mph - N/A   Mostly Cloudy
8:55 PM 36.0 °F 33.3 °F 8.2 °F 32% 30.05 in 10.0 mi WNW 3.5 mph - N/A   Overcast
9:15 PM 35.6 °F 31.7 °F 11.3 °F 37% 30.05 in 10.0 mi West 4.6 mph - N/A   Scattered Clouds
9:35 PM 35.1 °F 30.1 °F 12.7 °F 40% 30.05 in 10.0 mi WNW 5.8 mph - N/A   Scattered Clouds
9:55 PM 35.4 °F 29.7 °F 12.6 °F 39% 30.05 in 10.0 mi West 6.9 mph - N/A   Mostly Cloudy
10:15 PM 35.8 °F 30.9 °F 13.5 °F 40% 30.05 in 10.0 mi WNW 5.8 mph - N/A   Overcast
10:35 PM 35.8 °F 28.3 °F 14.0 °F 41% 30.05 in 10.0 mi WNW 10.4 mph - N/A   Overcast
10:55 PM 36.1 °F 30.6 °F 15.3 °F 43% 30.07 in 10.0 mi West 6.9 mph 18.4 mph N/A   Overcast
11:15 PM 36.1 °F 29.9 °F 15.6 °F 43% 30.06 in 10.0 mi West 8.1 mph 16.1 mph N/A   Overcast
11:35 PM 36.1 °F 32.3 °F 16.3 °F 45% 30.05 in 10.0 mi WNW 4.6 mph - N/A   Overcast
11:55 PM 35.6 °F 28.0 °F 17.4 °F 48% 30.06 in 10.0 mi WNW 10.4 mph - N/A   Overcast